User: anonymous   Login
Location: Hickory_CSC
(35.7330°N, 81.3330°W)
Time: 11:56:33
(UTC-04:00)
Language:

Cosmos 1356 Rocket - Orbit

View from above orbital plane
View from above orbital plane
View from above satellite
View from above satellite

Ground track
Ground track

The orbit data is extracted from the following two-line orbital elements,

1 13154U 82039B   15242.16434679  .00000669  00000-0  54658-4 0  9993
2 13154 081.1817 251.8883 0039635 269.4841 090.1836 14.97577085805370
Epoch (UTC): 30 August 2015 03:56:39
Eccentricity: 0.0039635
inclination: 81.1817°
perigee height: 547 km
apogee height: 602 km
right ascension of ascending node: 251.8883°
argument of perigee: 269.4841°
revolutions per day: 14.97577085
mean anomaly at epoch: 90.1836°
orbit number at epoch: 80537

The dashed part of the orbit path shows where the satellite is in the earth's shadow,  

DLR